This is the latest recevied weather packets stored in our database for station/object KF7SOJ. If no packets are shown the sender has not sent any weather packets the latest 1 day(s).
| Time | Temp. | Humidity | Pressure | Rain* | Wind** | Luminosity | Snow |
|---|---|---|---|---|---|---|---|
| 1778040698 | 3.33° C | 44% | 935.2 hPa | 0 mm | 0 m/s | 0 W/m² | - |
| 1778040395 | 2.78° C | 44% | 935.3 hPa | 0 mm | 0 m/s | 0 W/m² | - |
| 1778040092 | 2.78° C | 44% | 935.3 hPa | 0 mm | 0 m/s | 0 W/m² | - |
| 1778039789 | 2.78° C | 43% | 935.2 hPa | 0 mm | 0 m/s | 0 W/m² | - |
| 1778039485 | 2.78° C | 43% | 935.1 hPa | 0 mm | 0 m/s | 0 W/m² | - |
| 1778039183 | 2.78° C | 43% | 935.5 hPa | 0 mm | 0 m/s | 0 W/m² | - |
| 1778038880 | 3.89° C | 41% | 935.3 hPa | 0 mm | 1.79 m/s, 27° | 0 W/m² | - |
| 1778038577 | 3.89° C | 41% | 935.4 hPa | 0 mm | 1.79 m/s, 27° | 0 W/m² | - |
| 1778038274 | 3.89° C | 41% | 935.2 hPa | 0 mm | 1.79 m/s, 27° | 0 W/m² | - |
| 1778037971 | 3.89° C | 40% | 935.1 hPa | 0 mm | 1.79 m/s, 38° | 0 W/m² | - |
| 1778037668 | 3.89° C | 40% | 935 hPa | 0 mm | 1.79 m/s, 38° | 0 W/m² | - |
| 1778037365 | 4.44° C | 40% | 934.8 hPa | 0 mm | 1.34 m/s, 24° | 0 W/m² | - |
| 1778037062 | 4.44° C | 40% | 934.9 hPa | 0 mm | 1.79 m/s, 33° | 0 W/m² | - |
| 1778036761 | 3.89° C | 41% | 934.9 hPa | 0 mm | 2.24 m/s, 65° | 0 W/m² | - |
| 1778036457 | 3.89° C | 42% | 934.8 hPa | 0 mm | 2.24 m/s, 43° | 0 W/m² | - |
| 1778036154 | 3.89° C | 42% | 934.7 hPa | 0 mm | 1.34 m/s, 35° | 0 W/m² | - |
| 1778035850 | 3.89° C | 42% | 934.7 hPa | 0 mm | 2.24 m/s, 23° | 0 W/m² | - |
| 1778035547 | 4.44° C | 41% | 934.3 hPa | 0 mm | 1.79 m/s, 25° | 0 W/m² | - |
| 1778035244 | 4.44° C | 41% | 934.2 hPa | 0 mm | 2.24 m/s, 48° | 1 W/m² | - |
| 1778034940 | 5° C | 40% | 934.2 hPa | 0 mm | 1.79 m/s, 44° | 2 W/m² | - |
| 1778034638 | 5.56° C | 39% | 934.3 hPa | 0 mm | 2.24 m/s, 67° | 3 W/m² | - |
| 1778034335 | 5.56° C | 37% | 934.4 hPa | 0 mm | 3.13 m/s, 66° | 6 W/m² | - |
| 1778034032 | 6.11° C | 37% | 934.2 hPa | 0 mm | 3.13 m/s, 58° | 8 W/m² | - |
| 1778033730 | 6.11° C | 37% | 934.2 hPa | 0 mm | 3.13 m/s, 57° | 11 W/m² | - |
| 1778033427 | 6.11° C | 36% | 933.9 hPa | 0 mm | 3.58 m/s, 60° | 13 W/m² | - |
* Rain latest hour (hover to see other rain measurements)
** Current wind speed in m/s (hover to see current wind gust speed)